Temperature
14 14 14 14 14 14 14 14 15 16 17 16 15 15 14 14 15 15 15 15 15 15 15 16 16 16 16 16 16 16 15 15 15 15 14 14 14 13
14 14 14 14 14 14 14 14 14 15 16 15 14 14 14 14 14 15 14 14 14 15 15 15 16 15 16 16 16 16 15 15 15 14 14 14 14 13
13 13 13 13 13 14 14 14 14 14 14 15 14 14 14 14 14 15 14 14 14 14 14 15 15 15 16 16 16 16 16 15 15 14 14 14 13 13
12 12 12 12 12 12 13 13 13 13 13 14 14 14 14 14 14 14 15 14 14 14 14 14 14 15 15 15 16 16 15 15 14 14 14 14 13 12
12 12 12 12 12 12 12 13 13 13 13 13 13 13 13 14 14 14 14 14 14 14 13 14 14 14 14 15 15 15 15 14 14 14 14 13 12 12
11 11 11 11 11 11 12 12 13 13 13 13 13 13 13 13 13 13 13 14 13 13 13 13 13 13 14 14 15 15 15 14 14 14 13 13 12 12
11 11 11 11 12 12 12 12 12 13 13 14 13 13 13 12 12 12 13 13 13 13 13 12 13 13 13 14 14 14 13 13 13 13 13 12 12 12
11 11 11 11 11 12 12 12 12 12 12 13 13 13 12 12 12 12 12 12 12 12 12 12 12 12 13 13 13 13 13 12 12 12 12 13 13 13
11 11 12 11 11 11 11 11 11 12 12 11 12 12 12 12 12 12 12 12 11 11 11 11 11 11 12 12 12 12 12 12 12 12 13 13 13 13
10 10 10 11 11 11 11 11 11 11 11 11 11 11 12 12 12 12 12 12 12 11 11 11 11 11 11 12 12 12 12 12 13 13 13 13 13 13
10 10 10 10 11 11 10 11 11 11 11 11 11 11 11 12 12 12 12 13 12 11 11 11 10 11 11 11 11 12 12 12 12 12 12 12 12 12
10 10 10 10 10 10 10 10 10 10 10 11 11 11 11 11 11 11 11 12 12 11 11 11 11 11 10 10 10 11 11 11 12 12 12 12 12 12
11 11 10 10 10 10 9 9 10 10 11 11 11 11 11 11 11 11 10 11 11 11 11 11 11 11 11 10 10 10 10 10 11 11 12 12 12 11
10 10 9 9 9 9 9 9 9 10 11 11 11 11 10 10 10 10 10 10 10 10 11 11 11 11 11 11 10 10 10 10 10 11 11 11 11 11
9 9 9 9 9 8 8 9 9 10 10 10 10 10 10 9 10 10 10 10 10 10 10 10 10 10 11 11 11 10 10 10 10 10 10 10 10 11
9 9 9 9 9 8 9 9 9 8 9 9 9 9 9 9 9 9 10 10 10 10 9 9 10 10 10 10 10 10 10 10 10 10 10 10 10 10
9 9 10 10 10 9 9 9 8 8 8 8 8 8 9 9 9 9 8 9 9 9 9 9 9 9 9 10 9 9 10 10 10 10 10 10 10 10
9 10 10 10 10 10 10 9 8 7 7 7 7 7 8 8 8 8 8 8 8 8 8 8 8 9 9 8 8 8 9 9 9 9 10 10 10 9
9 10 10 10 9 9 9 9 8 7 7 7 7 7 7 7 7 7 7 7 8 8 8 8 7 8 8 8 8 8 8 8 8 8 9 9 9 9
10 10 10 9 9 9 9 8 8 7 7 7 6 6 6 7 7 7 7 6 7 7 7 7 6 6 7 7 7 7 7 7 7 7 8 8 8 9
10 10 9 9 9 8 8 8 7 7 6 6 6 6 6 6 6 6 6 6 6 7 7 7 6 5 6 7 7 7 7 6 7 7 7 7 7 8
10 10 9 9 9 8 8 8 8 7 7 7 6 6 6 6 6 6 6 6 6 6 6 6 6 6 6 7 7 7 6 6 6 6 6 6 6 6
10 10 9 9 8 8 8 8 7 7 7 6 6 6 5 5 5 5 6 6 6 6 6 6 6 6 6 6 6 6 6 5 5 5 5 6 6 6
Wind_Speed
1 2 3 3 4 3 3 4 5 6 5 3 4 3 5 5 6 7 5 7 7 8 10 11 13 15 16 17 19 21 21 21 25 30 35 36 35 34
2 3 3 3 4 4 4 4 5 6 6 5 5 7 8 7 5 7 6 4 8 9 9 10 11 14 14 13 14 18 20 22 25 31 35 35 34 33
3 4 4 6 5 5 5 5 4 6 8 7 5 6 7 7 5 4 4 5 6 9 8 9 10 11 10 9 10 13 17 21 27 33 35 34 33 31
5 5 5 5 6 6 6 6 5 5 7 9 8 7 7 8 8 6 5 5 5 8 8 8 8 7 6 6 7 11 16 21 27 31 33 32 31 29
7 7 6 5 6 6 7 7 7 6 5 6 7 6 7 9 10 7 6 5 5 6 8 8 6 5 4 3 5 10 16 21 25 27 29 29 29 28
8 7 6 7 7 7 6 7 8 7 7 6 7 8 8 11 11 11 9 5 3 4 4 2 3 4 3 4 7 11 15 20 23 25 27 27 26 25
9 9 9 8 8 7 7 9 9 8 8 8 9 9 10 11 11 10 11 8 2 1 3 1 2 3 3 6 7 11 14 17 21 24 25 24 23 22
10 9 9 8 6 6 7 8 10 10 11 10 10 10 11 10 9 9 9 7 4 3 1 2 3 3 2 2 8 12 13 15 18 20 23 23 21 20
9 8 9 10 9 8 4 4 6 6 6 8 11 11 12 12 11 10 8 6 5 5 4 4 5 4 3 4 7 10 12 15 17 19 20 20 19 19
8 8 8 10 10 10 8 8 8 8 8 9 9 9 10 11 11 8 5 1 3 4 4 4 5 5 4 3 3 5 9 11 13 15 16 18 18 19
7 7 7 9 12 15 7 7 7 7 2 1 3 6 6 6 10 11 10 8 5 5 3 2 2 2 4 3 3 2 3 8 12 14 15 16 17 17
6 6 11 10 12 15 9 9 8 8 9 6 3 4 5 7 9 12 11 10 8 6 6 3 1 1 2 2 1 0 0 1 5 11 15 17 17 13
4 4 6 9 11 12 10 8 8 9 7 6 6 7 8 8 10 11 10 9 9 8 8 6 3 1 1 2 1 1 2 2 2 3 8 12 15 14
2 3 6 6 6 8 7 9 12 11 6 7 7 8 9 9 9 10 8 7 7 8 10 10 5 4 3 1 2 3 3 4 5 5 4 6 7 10
4 6 4 1 5 4 2 7 8 7 7 7 7 7 7 8 8 8 8 6 3 7 11 11 9 6 5 4 3 2 0 3 5 5 6 6 5 4
5 6 6 3 3 2 2 1 6 7 8 7 8 7 7 8 8 9 9 8 7 7 10 12 10 9 6 6 5 6 6 2 2 4 4 4 3 3
2 5 5 4 3 4 4 5 6 7 7 8 8 8 8 8 8 8 8 8 8 8 9 9 10 7 8 9 7 7 8 6 3 1 3 3 3 4
4 4 3 2 2 3 4 5 6 8 7 7 8 8 8 8 8 8 8 9 8 8 9 9 10 8 4 5 10 10 9 8 7 3 1 1 2 3
5 4 4 3 2 3 4 5 6 6 6 7 7 7 7 7 7 8 8 9 9 8 8 8 9 9 9 7 5 8 9 9 9 7 5 4 2 1
5 5 4 3 2 1 3 4 4 5 5 6 7 7 7 7 7 8 7 9 9 8 8 8 9 10 10 9 8 6 3 6 8 8 7 6 4 2
5 5 4 4 3 1 1 1 3 4 5 5 6 6 6 6 7 7 7 6 7 8 8 8 8 8 9 8 8 5 2 2 2 5 7 6 5 4
6 6 5 4 4 3 2 2 1 0 2 4 5 5 5 5 6 6 7 7 7 8 8 8 8 8 7 8 9 9 8 5 1 3 3 3 4 4
7 6 6 6 6 5 5 5 4 3 2 3 4 5 5 5 6 6 7 7 7 8 9 8 8 8 8 8 8 8 9 9 7 5 5 5 7 10
Wind_Direction
294 309 311 323 319 321 312 319 320 318 322 342 337 336 325 326 328 301 261 176 209 229 241 250 256 259 259 254 242 232 224 215 203 193 184 182 182 183
31 8 351 340 330 326 322 313 303 300 301 311 317 327 328 312 307 311 298 191 225 234 245 253 258 263 267 266 244 223 212 202 188 178 176 178 178 184
55 41 33 23 10 359 353 339 319 305 293 297 304 323 329 324 311 284 262 243 228 222 240 255 261 268 279 275 243 211 195 186 176 172 173 174 177 186
65 58 50 50 35 16 352 346 334 319 307 312 319 326 328 329 320 292 258 245 232 207 220 243 257 269 276 263 221 192 179 172 169 168 169 171 179 186
73 73 62 45 27 18 358 355 347 352 351 334 340 346 344 346 336 319 280 254 235 189 204 225 241 254 243 216 176 168 165 163 161 162 165 171 177 180
80 75 61 42 22 2 9 14 11 16 34 27 18 11 7 1 0 349 334 301 239 180 179 211 210 221 203 166 150 148 148 150 153 157 162 168 172 176
83 73 63 51 30 6 14 16 16 17 31 34 31 24 17 9 7 354 346 334 302 165 169 194 239 238 187 170 158 149 149 151 154 158 162 167 172 179
86 87 88 64 75 63 37 27 20 22 21 17 29 22 16 7 359 1 1 4 2 4 31 38 351 317 296 194 147 151 156 159 163 166 170 174 180 188
76 67 66 57 32 50 84 151 71 43 359 343 23 12 12 6 349 1 19 27 28 2 23 32 6 343 352 49 127 155 161 162 166 172 178 184 191 199
83 77 69 54 28 4 37 45 44 41 22 19 12 5 13 356 344 338 344 83 99 59 47 40 11 1 3 42 68 156 168 172 176 183 191 198 203 206
84 61 55 55 16 348 16 28 26 21 119 176 299 293 286 320 350 360 1 358 34 65 59 66 35 16 14 25 29 45 174 189 194 199 205 209 210 210
124 110 71 42 16 360 11 20 15 0 347 348 332 334 356 17 19 16 10 6 10 36 29 9 47 93 74 34 13 287 36 160 198 205 209 211 209 211
128 111 75 39 21 5 359 21 349 314 331 350 4 9 12 14 17 23 20 18 15 21 9 352 350 13 100 126 147 213 207 183 180 180 193 201 204 207
104 79 76 46 30 17 19 350 317 318 6 12 14 15 16 14 15 19 26 37 37 28 11 2 352 344 341 49 147 181 198 194 188 176 168 172 193 209
87 66 53 278 230 155 68 313 331 13 16 15 14 11 11 12 1 3 7 360 5 33 21 12 7 354 342 349 2 10 230 179 184 168 163 172 177 186
154 152 185 229 186 124 183 13 45 32 6 7 3 359 355 356 359 359 354 353 357 14 25 13 9 7 1 348 356 9 10 11 154 163 161 162 165 176
203 192 185 165 136 89 67 42 25 20 12 9 2 355 352 351 352 356 353 348 356 1 6 9 7 20 45 24 18 15 14 16 22 99 151 161 166 169
260 177 153 128 77 51 32 36 39 27 13 12 9 1 355 354 357 2 2 358 355 357 359 0 359 356 349 59 32 14 10 8 3 356 321 200 179 172
217 155 144 124 93 67 44 36 37 39 12 12 12 5 358 357 0 357 3 357 351 353 353 359 0 354 343 342 27 33 4 355 352 352 350 332 306 313
191 156 156 150 125 59 44 37 34 33 20 16 19 10 5 4 4 357 11 8 350 354 356 10 10 351 333 327 321 328 14 351 350 345 340 330 316 287
170 171 176 175 168 164 79 31 25 33 20 2 23 11 4 5 7 358 1 6 336 355 353 2 7 314 303 309 309 323 350 109 16 341 337 324 313 300
174 182 185 192 200 215 211 241 256 360 346 355 15 360 0 358 358 351 351 347 350 354 346 348 352 342 344 343 336 337 347 350 234 209 265 292 323 324
189 193 190 199 213 224 234 228 242 271 288 333 347 348 349 346 341 342 340 339 344 347 339 343 348 347 352 347 340 338 346 353 347 308 269 231 253 266
Height
1482 1481 1482 1481 1481 1480 1479 1477 1476 1474 1472 1472 1470 1468 1465 1463 1462 1462 1462 1461 1461 1462 1463 1463 1463 1462 1461 1459 1458 1458 1459 1463 1468 1473 1478 1483 1489 1495
1480 1480 1481 1480 1480 1480 1479 1477 1476 1475 1473 1471 1468 1466 1463 1462 1460 1458 1458 1458 1457 1458 1458 1457 1457 1456 1455 1453 1451 1451 1452 1456 1461 1466 1472 1479 1485 1491
1479 1480 1480 1480 1480 1481 1479 1478 1476 1474 1472 1469 1467 1464 1461 1460 1458 1456 1455 1454 1453 1453 1452 1452 1452 1452 1451 1449 1447 1446 1447 1451 1456 1461 1467 1474 1480 1486
1479 1480 1480 1481 1480 1480 1480 1479 1476 1472 1470 1467 1465 1463 1460 1458 1456 1453 1451 1450 1449 1448 1448 1448 1448 1448 1447 1445 1444 1443 1444 1447 1452 1457 1462 1469 1475 1482
1480 1481 1482 1482 1482 1482 1481 1479 1475 1472 1469 1466 1464 1461 1459 1457 1453 1451 1448 1446 1445 1444 1444 1445 1445 1444 1443 1442 1441 1441 1441 1444 1448 1453 1459 1465 1472 1479
1481 1483 1484 1484 1483 1483 1482 1478 1475 1472 1470 1467 1465 1462 1460 1456 1452 1449 1446 1444 1442 1442 1441 1442 1442 1441 1441 1440 1439 1439 1441 1443 1447 1452 1457 1463 1470 1477
1484 1485 1484 1484 1484 1483 1481 1479 1476 1474 1472 1469 1468 1465 1462 1458 1453 1449 1445 1441 1440 1439 1439 1439 1439 1440 1440 1439 1439 1439 1441 1443 1447 1452 1457 1462 1469 1476
1488 1488 1487 1487 1486 1484 1482 1480 1478 1476 1474 1472 1470 1468 1464 1461 1456 1451 1447 1442 1439 1437 1437 1437 1437 1438 1439 1440 1440 1440 1442 1444 1447 1452 1457 1463 1469 1476
1491 1491 1490 1489 1488 1488 1486 1483 1481 1478 1476 1474 1473 1471 1468 1464 1458 1454 1450 1445 1442 1440 1437 1437 1437 1438 1438 1440 1441 1443 1444 1446 1449 1454 1459 1464 1470 1475
1493 1492 1491 1490 1489 1489 1488 1486 1483 1480 1477 1476 1475 1473 1469 1464 1460 1456 1453 1449 1446 1444 1441 1440 1438 1438 1439 1440 1441 1444 1446 1448 1451 1455 1460 1465 1469 1473
1494 1493 1493 1491 1490 1489 1488 1486 1484 1482 1480 1477 1475 1473 1470 1466 1461 1458 1455 1452 1450 1448 1446 1444 1442 1440 1440 1441 1442 1443 1445 1448 1450 1454 1458 1462 1466 1469
1494 1493 1492 1491 1490 1488 1487 1485 1483 1481 1480 1479 1477 1474 1471 1468 1464 1460 1458 1455 1452 1451 1450 1448 1446 1445 1443 1443 1442 1442 1443 1445 1448 1450 1454 1457 1461 1464
1494 1494 1492 1491 1489 1488 1486 1485 1483 1481 1481 1479 1477 1474 1471 1469 1466 1463 1460 1458 1455 1454 1453 1450 1449 1448 1447 1445 1444 1443 1443 1443 1444 1446 1449 1452 1455 1458
1493 1493 1491 1489 1488 1488 1487 1486 1484 1483 1481 1479 1477 1475 1472 1470 1467 1464 1461 1459 1457 1455 1453 1452 1450 1449 1448 1447 1446 1444 1443 1443 1443 1444 1445 1447 1450 1453
1491 1490 1490 1489 1488 1489 1488 1486 1485 1484 1482 1480 1478 1476 1474 1471 1469 1466 1463 1461 1459 1456 1454 1452 1451 1449 1449 1448 1447 1446 1445 1443 1442 1443 1444 1444 1445 1447
1490 1489 1489 1489 1489 1489 1488 1487 1486 1484 1482 1480 1478 1476 1474 1472 1470 1467 1465 1462 1460 1458 1455 1452 1450 1449 1449 1448 1447 1445 1444 1443 1442 1442 1442 1443 1444 1445
1489 1490 1490 1490 1490 1489 1488 1487 1486 1484 1482 1480 1478 1476 1474 1472 1470 1468 1465 1463 1461 1459 1456 1454 1452 1450 1449 1447 1447 1445 1444 1443 1442 1441 1441 1442 1442 1443
1488 1489 1489 1490 1489 1489 1488 1487 1486 1484 1482 1480 1478 1476 1474 1472 1470 1468 1466 1464 1462 1460 1458 1456 1454 1452 1450 1449 1447 1445 1445 1444 1443 1443 1442 1442 1443 1443
1487 1488 1489 1489 1489 1489 1488 1487 1486 1485 1483 1481 1479 1477 1475 1473 1471 1469 1467 1465 1463 1461 1459 1457 1455 1453 1451 1449 1447 1445 1444 1443 1443 1442 1442 1442 1442 1441
1486 1487 1488 1488 1489 1488 1488 1487 1486 1485 1484 1482 1480 1478 1476 1474 1472 1470 1468 1467 1464 1462 1461 1459 1457 1454 1453 1451 1448 1446 1444 1443 1441 1440 1439 1439 1439 1439
1485 1486 1487 1487 1488 1488 1487 1487 1486 1485 1484 1483 1481 1479 1477 1475 1473 1471 1469 1467 1465 1463 1462 1460 1457 1454 1452 1450 1448 1446 1444 1441 1440 1439 1438 1438 1437 1437
1483 1484 1485 1485 1486 1486 1486 1486 1485 1485 1484 1482 1481 1479 1477 1475 1474 1472 1470 1468 1466 1464 1462 1460 1458 1455 1452 1450 1448 1446 1443 1441 1438 1437 1437 1437 1435 1435
1480 1481 1482 1483 1483 1484 1484 1484 1484 1483 1483 1482 1481 1479 1477 1475 1474 1472 1470 1468 1467 1465 1463 1460 1458 1455 1453 1451 1448 1445 1443 1440 1438 1436 1436 1435 1434 1433